Hit Tracker is now ESPN Home Run Tracker! Hit Tracker founder Greg Rybarczyk is now collaborating with the ESPN Stats & Information Group to continue tracking all MLB home runs, and helping baseball fans know "How Far It Really Went!™" Please credit any information on this site to ESPN Stats & Information Group. For more information and analysis on home runs, please contact founder Greg Rybarczyk. E-Mail ESPN Home Run Tracker
Main Page | Ballparks | Park Overlays | Glossary | Highlight Homers | Feedback | Bio | 3 Types of HR's | AAA Home Run Derby Last Updated: September 30, 2014, 9:42 am PST
Welcome to the ESPN Home Run Tracker! Check out the ESPN MLB Scoreboard throughout the 2014 season! Contact us at grybar@hittrackeronline.com.
Season:
Ballpark detail for Busch Stadium
Ballpark # of Home Runs HR per game Avg.
True
Distance
Avg.
Speed
Off
Bat
Avg.
Std.
Dist.
Busch Stadium 112 1.38 401.7 104.3 399.2

Scatter Plot of Home Runs Busch Stadium
 Overlay Ballpark:
Without range rings   With range rings

2014 Season Home Runs for Busch Stadium
Click headers to sort
Date Video Path Hitter Hitter
Team
Pitcher Pitcher
Team
INN Ballpark Type/
Luck
True
Dist.
Speed
Off
Bat
Elev.
Angle
Horiz.
Angle
Apex Impact Due To: Std.
Dist.
#
Parks
Wind ^ Temp. Alt.
04/08/14 Video View Molina, Yadier STL Bailey, Homer CIN 2 Busch Stadiu... PL 400 107.7 27.7 118.8 85 -4 -1 1 405 30
09/02/14 Video View Marte, Starling PIT Wainwright, Adam STL 7 Busch Stadiu... ND 412 107.4 29.2 115.7 95 -3 2 1 411 30
06/03/14 Video View Gordon, Alex KC Garcia, Jaime STL 5 Busch Stadiu... PL 379 101.6 28.9 62.7 82 -2 2 1 378 29
06/03/14 Video View Bourjos, Peter STL Shields, James KC 6 Busch Stadiu... ND 428 107.1 27.6 104.5 96 -2 2 1 426 30
04/29/14 Video View Gomez, Carlos MIL Lyons, Tyler STL 7 Busch Stadiu... PL 381 105.5 25.8 118.9 71 -2 -1 1 384 30
05/18/14 Video View Freeman, Freddie ATL Garcia, Jaime STL 1 Busch Stadiu... PL 413 103.1 27.2 98.8 93 -2 0 0 413 30
08/31/14 Video View Wong, Kolten STL Wood, Travis CHC 5 Busch Stadiu... PL 392 100.8 29.6 72.9 94 -2 2 1 391 28
06/03/14 Video View Wong, Kolten STL Shields, James KC 2 Busch Stadiu... JE 388 100.9 26.7 74.0 79 -1 2 0 386 22
04/09/14 Video View Mesoraco, Devin CIN Miller, Shelby STL 4 Busch Stadiu... PL 411 103.4 26.7 99.7 90 -1 -1 0 412 30
04/30/14 Video View Adams, Matt STL Garza, Matt MIL 3 Busch Stadiu... ND 442 110.2 23.6 82.8 86 -1 -2 0 445 30
05/13/14 Video View Valbuena, Luis CHC Wainwright, Adam STL 3 Busch Stadiu... JE 366 98.4 35.1 70.4 119 -1 -3 2 368 25
05/15/14 Video View Castro, Starlin CHC Wacha, Michael STL 4 Busch Stadiu... PL 371 101.5 29.2 122.7 79 -1 -1 1 372 30
06/15/14 Video View Holliday, Matt STL Fister, Doug WSH 3 Busch Stadiu... PL 426 109.0 20.9 93.6 66 -1 0 0 427 26
07/08/14 Video View McCutchen, Andrew PIT Martinez, Carlos STL 5 Busch Stadiu... JE/L 379 98.2 28.5 74.8 84 -1 1 1 378 20
07/08/14 Video View Alvarez, Pedro PIT Martinez, Carlos STL 4 Busch Stadiu... PL 415 102.7 27.3 83.3 94 -1 2 1 414 26
07/20/14 Video View Bourjos, Peter STL Kershaw, Clayton LAD 6 Busch Stadiu... JE 405 108.7 21.0 100.3 59 -1 0 0 406 23
08/07/14 Video View Wong, Kolten STL Workman, Brandon BOS 5 Busch Stadiu... JE 375 103.5 24.9 65.6 66 -1 1 0 375 23
08/07/14 Video View Wong, Kolten STL Breslow, Craig BOS 7 Busch Stadiu... ND 412 106.4 30.1 67.2 102 -1 1 1 412 30
08/14/14 Video View Peralta, Jhonny STL Stults, Eric SD 2 Busch Stadiu... PL 408 101.4 31.5 98.6 114 -1 2 1 405 27
09/12/14 Video View Holliday, Matt STL De La Rosa, Jorge COL 1 Busch Stadiu... ND 439 115.8 25.3 116.7 82 -1 -2 1 441 30
09/13/14 Video View Carpenter, Matt STL Morales, Franklin COL 2 Busch Stadiu... PL 407 102.9 26.6 79.8 87 -1 0 1 408 27
05/30/14 Video View Pence, Hunter SF Wainwright, Adam STL 2 Busch Stadiu... PL 400 104.8 34.2 113.0 124 0 2 2 396 30
05/31/14 Video View Taveras, Oscar STL Petit, Yusmeiro SF 5 Busch Stadiu... PL 404 103.6 29.2 70.1 93 0 2 1 401 30
04/11/14 Video View Castillo, Welington CHC Rosenthal, Trevor STL 11 Busch Stadiu... PL 421 106.2 25.2 100.5 84 0 0 1 421 30
04/28/14 Video View Craig, Allen STL Gallardo, Yovani MIL 6 Busch Stadiu... PL 417 107.7 22.7 99.7 69 0 0 0 417 30
04/29/14 Video View Molina, Yadier STL Lohse, Kyle MIL 1 Busch Stadiu... JE 409 102.7 25.2 95.7 83 0 -1 0 410 20
05/18/14 Video View Upton, Justin ATL Garcia, Jaime STL 4 Busch Stadiu... ND 435 113.7 25.0 112.8 80 0 -1 1 435 30
05/20/14 Video View Peralta, Jhonny STL Arroyo, Bronson ARI 6 Busch Stadiu... PL 436 106.6 26.4 97.2 94 0 1 1 434 30
05/21/14 Video View Parra, Gerardo ARI Martinez, Carlos STL 8 Busch Stadiu... JE 373 99.3 26.8 71.1 73 0 1 1 372 18
06/13/14 Video View Adams, Matt STL Zimmermann, Jordan WSH 2 Busch Stadiu... PL 420 102.6 28.5 86.3 102 0 1 1 418 23
06/15/14 Video View Adams, Matt STL Fister, Doug WSH 2 Busch Stadiu... JE 385 110.0 21.7 65.3 54 0 1 0 384 26
06/17/14 Video View Duda, Lucas NYM Motte, Jason STL 9 Busch Stadiu... PL 398 107.6 26.0 60.5 72 0 1 1 396 30
06/20/14 Video View Byrd, Marlon PHI Garcia, Jaime STL 6 Busch Stadiu... PL 379 107.1 24.5 124.1 61 0 1 0 378 30
07/05/14 Video View Yelich, Christian MIA Maness, Seth STL 6 Busch Stadiu... PL 427 105.9 23.6 91.0 79 0 0 1 427 25
07/08/14 Video View Wong, Kolten STL Frieri, Ernesto PIT 9 Busch Stadiu... PL 402 107.7 25.7 64.6 73 0 1 1 401 30
07/09/14 Video View Walker, Neil PIT Lynn, Lance STL 2 Busch Stadiu... PL 391 101.5 27.1 73.1 80 0 1 1 389 26
07/09/14 Video View Wong, Kolten STL Wilson, Justin PIT 7 Busch Stadiu... JE 379 104.3 23.1 71.7 60 0 0 0 379 19
07/10/14 Video View Martin, Russell PIT Motte, Jason STL 9 Busch Stadiu... JE 376 106.8 23.4 119.0 58 0 0 0 375 28
07/18/14 Video View Holliday, Matt STL Haren, Dan LAD 5 Busch Stadiu... PL 446 114.1 18.9 90.5 63 0 0 0 446 27
07/19/14 Video View Adams, Matt STL Greinke, Zack LAD 1 Busch Stadiu... JE 361 100.9 27.1 56.2 66 0 1 0 360 29
07/22/14 Video View Holliday, Matt STL Odorizzi, Jake TB 6 Busch Stadiu... PL 423 106.5 23.8 98.0 76 0 1 1 422 30
07/22/14 Video View Longoria, Evan TB Motte, Jason STL 9 Busch Stadiu... JE 366 103.3 25.2 121.7 61 0 1 0 365 25
08/01/14 Video View Ramirez, Aramis MIL Wainwright, Adam STL 2 Busch Stadiu... JE 395 103.8 23.8 102.8 68 0 0 0 394 19
08/02/14 Video View Wong, Kolten STL Lohse, Kyle MIL 1 Busch Stadiu... JE 412 100.9 29.3 86.2 102 0 2 1 409 14
08/02/14 Video View Peralta, Jhonny STL Lohse, Kyle MIL 2 Busch Stadiu... PL 389 99.6 29.6 105.9 92 0 2 1 387 27
08/03/14 Video View Reynolds, Mark MIL Lackey, John STL 2 Busch Stadiu... PL 390 105.0 26.5 117.2 73 0 2 1 388 30
08/03/14 Video View Holliday, Matt STL Duke, Zach MIL 7 Busch Stadiu... PL 435 105.7 26.1 93.7 93 0 2 1 433 29
08/15/14 Video View Grandal, Yasmani SD Neshek, Pat STL 9 Busch Stadiu... PL 432 106.4 23.9 87.5 82 0 1 1 431 27
08/17/14 Video View Carpenter, Matt STL Despaigne, Odrisamer SD 2 Busch Stadiu... JE 403 104.0 24.1 79.6 74 0 0 0 403 25
08/18/14 Video View Bruce, Jay CIN Masterson, Justin STL 5 Busch Stadiu... PL 390 103.5 26.6 67.6 75 0 1 1 388 30
08/19/14 Video View Peralta, Jhonny STL Simon, Alfredo CIN 6 Busch Stadiu... ND 416 108.1 30.8 118.6 102 0 3 1 412 30
08/29/14 Video View Alcantara, Arismendy CHC Greenwood, Nick STL 9 Busch Stadiu... PL 422 104.6 24.1 91.9 79 0 1 1 421 23
08/30/14 Video View Holliday, Matt STL Fujikawa, Kyuji CHC 8 Busch Stadiu... PL 431 106.4 23.7 91.9 80 0 0 0 430 27
08/31/14 Video View Holliday, Matt STL Wood, Travis CHC 4 Busch Stadiu... PL 432 105.5 26.5 83.9 94 0 2 1 429 28
09/01/14 Video View McCutchen, Andrew PIT Siegrist, Kevin STL 7 Busch Stadiu... ND 417 108.7 28.3 117.6 88 0 2 1 414 30
09/01/14 Video View Wong, Kolten STL Cole, Gerrit PIT 7 Busch Stadiu... JE 379 105.4 22.7 70.6 58 0 0 0 379 20
09/02/14 Video View Martin, Russell PIT Wainwright, Adam STL 2 Busch Stadiu... JE 415 105.8 22.3 84.7 69 0 0 0 414 17
09/02/14 Video View Mercer, Jordy PIT Wainwright, Adam STL 3 Busch Stadiu... PL 401 106.1 27.9 117.7 82 0 0 1 399 30
09/13/14 Video View Holliday, Matt STL Morales, Franklin COL 1 Busch Stadiu... JE 418 104.1 24.2 87.9 81 0 0 1 418 22
09/14/14 Video View Peralta, Jhonny STL Lyles, Jordan COL 3 Busch Stadiu... PL 411 103.6 24.9 97.5 80 0 0 0 411 22
09/16/14 Video View Parra, Gerardo MIL Lynn, Lance STL 4 Busch Stadiu... PL 369 101.8 37.3 68.9 139 0 -2 2 368 28
09/19/14 Video View Holliday, Matt STL Holmberg, David CIN 1 Busch Stadiu... JE 418 110.7 18.7 93.3 57 0 0 0 418 18
09/20/14 Video View Wong, Kolten STL Leake, Mike CIN 3 Busch Stadiu... PL 401 107.8 25.4 64.3 71 0 1 1 399 30
09/20/14 Video View Cruz, Tony STL Leake, Mike CIN 2 Busch Stadiu... JE 383 105.4 23.7 112.0 62 0 1 0 382 24
09/20/14 Video View Cozart, Zack CIN Gonzales, Marco STL 7 Busch Stadiu... PL 398 103.0 31.7 112.0 105 0 2 1 395 30
09/21/14 Video View Bruce, Jay CIN Lynn, Lance STL 4 Busch Stadiu... JE 390 112.4 20.0 71.3 51 0 0 0 390 23
09/21/14 Video View Frazier, Todd CIN Lynn, Lance STL 6 Busch Stadiu... PL 397 107.0 24.1 110.0 68 0 0 1 397 30
09/21/14 Video View Mesoraco, Devin CIN Tuivailala, Samuel STL 8 Busch Stadiu... PL 376 100.9 35.1 114.4 118 0 -1 2 374 30
09/21/14 Video View Bruce, Jay CIN Tuivailala, Samuel STL 8 Busch Stadiu... ND 422 107.5 28.9 70.3 100 0 0 1 421 30
05/27/14 Video View Holliday, Matt STL Aceves, Alfredo NYY 7 Busch Stadiu... PL 418 102.3 30.3 93.6 112 1 1 1 415 24
04/13/14 Video View Rizzo, Anthony CHC Wacha, Michael STL 1 Busch Stadiu... JE 382 102.9 24.3 72.5 63 1 0 0 381 17
04/30/14 Video View Craig, Allen STL Wang, Wei-Chung MIL 6 Busch Stadiu... JE 412 102.8 25.6 94.8 90 1 -2 0 413 19
05/12/14 Video View Olt, Mike CHC Lyons, Tyler STL 1 Busch Stadiu... PL 367 97.6 32.6 63.6 96 1 1 1 363 25
05/12/14 Video View Lake, Junior CHC Lyons, Tyler STL 2 Busch Stadiu... JE 369 102.6 25.7 119.8 64 1 1 0 367 25
05/20/14 Video View Adams, Matt STL Arroyo, Bronson ARI 1 Busch Stadiu... JE 412 101.5 27.2 85.0 89 1 1 1 409 15
07/05/14 Video View Craig, Allen STL Heaney, Andrew MIA 4 Busch Stadiu... JE 401 103.5 24.2 79.3 72 1 0 0 400 18
08/01/14 Video View Holliday, Matt STL Peralta, Wily MIL 6 Busch Stadiu... PL 401 108.3 24.2 112.8 68 1 0 1 400 30
08/16/14 Video View Gyorko, Jedd SD Siegrist, Kevin STL 7 Busch Stadiu... JE 361 100.3 27.3 122.1 67 1 1 1 359 26
08/19/14 Video View Frazier, Todd CIN Lackey, John STL 4 Busch Stadiu... JE 421 105.6 22.7 92.6 74 1 1 0 420 21
08/30/14 Video View Castro, Starlin CHC Masterson, Justin STL 5 Busch Stadiu... PL 401 106.9 26.7 117.4 76 1 1 1 398 30
08/30/14 Video View Holliday, Matt STL Wada, Tsuyoshi CHC 5 Busch Stadiu... PL 419 105.1 24.0 83.3 77 1 0 1 417 23
09/20/14 Video View Grichuk, Randal STL Dennick, Ryan CIN 6 Busch Stadiu... ND 449 109.1 28.2 100.3 109 1 2 1 445 30
06/02/14 Video View Gordon, Alex KC Miller, Shelby STL 7 Busch Stadiu... PL 425 108.6 25.0 74.2 79 2 1 1 421 30
05/29/14 Video View Sandoval, Pablo SF Garcia, Jaime STL 6 Busch Stadiu... PL 412 101.7 28.4 97.5 95 2 1 1 409 28
05/29/14 Video View Craig, Allen STL Vogelsong, Ryan SF 6 Busch Stadiu... PL 412 101.5 27.7 83.3 92 2 1 1 408 17
05/27/14 Video View Craig, Allen STL Phelps, David NYY 5 Busch Stadiu... JE 362 96.4 33.3 64.1 98 2 1 1 357 18
04/12/14 Video View Lake, Junior CHC Wainwright, Adam STL 1 Busch Stadiu... PL 374 99.2 30.9 117.1 87 2 1 1 370 30
04/12/14 Video View Adams, Matt STL Villanueva, Carlos CHC 2 Busch Stadiu... JE 372 105.7 24.1 57.4 58 2 1 1 369 26
04/27/14 Video View Peralta, Jhonny STL Volquez, Edinson PIT 6 Busch Stadiu... JE 393 100.7 27.3 104.4 79 2 0 1 390 26
04/28/14 Video View Holliday, Matt STL Gallardo, Yovani MIL 6 Busch Stadiu... JE 415 105.3 22.7 84.8 69 2 0 0 413 17
04/30/14 Video View Reynolds, Mark MIL Miller, Shelby STL 2 Busch Stadiu... PL 415 104.6 23.7 95.7 80 2 -1 0 414 21
04/30/14 Video View Gomez, Carlos MIL Miller, Shelby STL 3 Busch Stadiu... PL 430 109.9 20.0 88.5 67 2 0 0 428 25
06/17/14 Video View Wright, David NYM Wacha, Michael STL 4 Busch Stadiu... PL 386 100.9 30.8 114.9 91 2 2 1 381 30
06/18/14 Video View Carpenter, Matt STL Colon, Bartolo NYM 1 Busch Stadiu... JE 399 108.5 22.1 73.2 60 2 1 0 397 24
07/22/14 Video View Carpenter, Matt STL Odorizzi, Jake TB 1 Busch Stadiu... PL 416 102.3 26.4 85.4 86 2 2 1 412 19
08/29/14 Video View Valbuena, Luis CHC Miller, Shelby STL 2 Busch Stadiu... PL 419 105.3 25.8 77.8 83 2 1 1 415 29
08/30/14 Video View Watkins, Logan CHC Masterson, Justin STL 4 Busch Stadiu... JE 376 100.3 26.1 70.3 68 2 1 0 373 17
08/31/14 Video View Valbuena, Luis CHC Lackey, John STL 2 Busch Stadiu... PL 377 98.3 33.3 69.2 105 2 3 1 372 23
08/31/14 Video View Alcantara, Arismendy CHC Choate, Randy STL 7 Busch Stadiu... JE 408 101.5 26.9 98.7 83 3 1 1 403 26
09/19/14 Video View Grichuk, Randal STL Holmberg, David CIN 1 Busch Stadiu... PL 400 101.6 28.3 105.3 86 3 1 1 396 30
06/17/14 Video View Molina, Yadier STL Niese, Jonathon NYM 2 Busch Stadiu... JE/L 362 98.5 28.2 120.0 68 4 2 1 356 16
07/06/14 Video View Wong, Kolten STL Alvarez, Henderson MIA 7 Busch Stadiu... PL 416 103.2 30.4 75.8 103 4 3 1 408 29
08/30/14 Video View Valaika, Chris CHC Masterson, Justin STL 4 Busch Stadiu... PL 408 102.6 28.2 105.2 87 4 1 1 401 30
05/29/14 Video View Morse, Michael SF Garcia, Jaime STL 2 Busch Stadiu... PL 436 105.2 31.1 96.6 120 5 3 1 427 30
08/29/14 Video View Soler, Jorge CHC Miller, Shelby STL 7 Busch Stadiu... PL 420 102.0 32.0 89.1 120 5 2 1 412 21
06/19/14 Video View Howard, Ryan PHI Miller, Shelby STL 6 Busch Stadiu... PL 357 95.8 36.4 119.9 105 7 4 2 345 23
07/07/14 Video View Adams, Matt STL Wilson, Justin PIT 9 Busch Stadiu... PL 373 99.0 31.4 57.2 83 8 1 1 363 29
06/14/14 Video View Adams, Matt STL Strasburg, Stephen WSH 7 Busch Stadiu... PL 389 99.3 31.3 69.2 99 9 0 1 379 25
08/29/14 Video View Soler, Jorge CHC Neshek, Pat STL 8 Busch Stadiu... ND 438 108.3 29.8 109.4 102 10 2 1 426 30
07/06/14 Video View Saltalamacchia, Jarrod MIA Motte, Jason STL 8 Busch Stadiu... PL 384 101.5 38.1 71.5 140 12 7 2 364 19
07/05/14 Video View Peralta, Jhonny STL Heaney, Andrew MIA 4 Busch Stadiu... PL 362 102.9 40.6 117.2 149 14 4 3 342 24
04/27/14 Video View Peralta, Jhonny STL Volquez, Edinson PIT 5 Busch Stadiu... ND 407 104.1 33.0 119.6 102 15 1 1 390 30


About HitTracker | Contact Us
© 2006-2009 HitTrackerOnline